User: anonymous   Login
Location: Caltech
(34.1382°N, 118.1253°W)
Time: 12:56:40
(UTC-07:00)
Language:

SL-16 R/B - Orbit

View from above orbital plane
View from above orbital plane
View from above satellite
View from above satellite

Ground track
Ground track

The orbit data is extracted from the following two-line orbital elements,

1 31793U 07029B   16125.80810206  .00000210  00000-0  13487-3 0  9990
2 31793  70.9750 166.9515 0001996 279.8779 204.4123 14.14362780456973
Epoch (UTC): 04 May 2016 19:23:40
Eccentricity: 0.0001996
inclination: 70.9750°
perigee height: 843 km
apogee height: 846 km
right ascension of ascending node: 166.9515°
argument of perigee: 279.8779°
revolutions per day: 14.14362780
mean anomaly at epoch: 204.4123°
orbit number at epoch: 45697

The dashed part of the orbit path shows where the satellite is in the earth's shadow,  

DLR